This demonstration page uses our WeatherBlox Daily Observations layout. Learn more.

Left ArrowRight Arrow

34.74481, -87.66753

Hourly Observations for October 6, 2016

Temp ( °F °C ) Dew Point ( °F °C ) Humidity (%) Winds ( mph kmh ) Pressure ( in mb ) Visibility ( mi km ) Precip ( " mm )
12:53 am 00:53 Clear 61 16.1 55 12.8 81 81 E 3 6 30.08 1019 10 16 0.00 0.00
1:53 am 01:53 Clear 64 17.8 53 11.7 68 68 E 3 6 30.08 1019 10 16 0.00 0.00
2:53 am 02:53 Clear 62 16.7 54 12.2 75 75 Calm 30.09 1019 10 16 0.00 0.00
3:53 am 03:53 Clear 62 16.7 52 11.1 70 70 E 5 7 30.08 1019 10 16 0.00 0.00
4:53 am 04:53 Clear 60 15.6 52 11.1 75 75 Calm 30.09 1019 10 16 0.00 0.00
5:53 am 05:53 Clear 58 14.4 53 11.7 84 84 Calm 30.10 1019 10 16 0.00 0.00
6:53 am 06:53 Sunny 58 14.4 53 11.7 84 84 E 5 7 30.12 1020 10 16 0.00 0.00
7:53 am 07:53 Sunny 65 18.3 56 13.3 73 73 ESE 7 11 30.14 1021 10 16 0.00 0.00
8:53 am 08:53 Sunny 70 21.1 57 13.9 64 64 ESE 10 17 30.15 1021 10 16 0.00 0.00
9:53 am 09:53 Sunny 75 23.9 58 14.4 55 55 SE 8 13 30.15 1021 10 16 0.00 0.00
10:53 am 10:53 Sunny 78 25.6 57 13.9 48 48 ESE 9 15 30.14 1021 10 16 0.00 0.00
11:53 am 11:53 Sunny 82 27.8 56 13.3 41 41 ESE 7 11 30.12 1020 10 16 0.00 0.00
12:53 pm 12:53 Sunny 85 29.4 57 13.9 39 39 E 8 13 30.09 1019 10 16 0.00 0.00
1:53 pm 13:53 Sunny 86 30 53 11.7 32 32 ESE 9 15 30.07 1018 10 16 0.00 0.00
2:53 pm 14:53 Sunny 88 31.1 54 12.2 31 31 E 12 19 30.05 1018 10 16 0.00 0.00
3:53 pm 15:53 Sunny 88 31.1 53 11.7 30 30 VRB 7 11 30.04 1017 10 16 0.00 0.00
4:53 pm 16:53 Sunny 87 30.6 53 11.7 31 31 VRB 6 9 30.02 1017 10 16 0.00 0.00
5:53 pm 17:53 Sunny 85 29.4 53 11.7 33 33 ENE 5 7 30.03 1017 10 16 0.00 0.00
6:53 pm 18:53 Clear 77 25 53 11.7 43 43 ENE 5 7 30.03 1017 10 16 0.00 0.00
7:53 pm 19:53 Clear 74 23.3 54 12.2 50 50 ENE 3 6 30.03 1017 10 16 0.00 0.00
8:53 pm 20:53 Clear 69 20.6 58 14.4 68 68 Calm 30.03 1017 10 16 0.00 0.00
9:53 pm 21:53 Clear 67 19.4 57 13.9 71 71 Calm 30.02 1017 10 16 0.00 0.00
10:53 pm 22:53 Clear 63 17.2 55 12.8 76 76 Calm 30.02 1017 10 16 0.00 0.00
11:53 pm 23:53 Clear 63 17.2 56 13.3 78 78 Calm 30.01 1016 10 16 0.00 0.00

Powered by AerisWeather